Regional Weather Roundup
Issued by NWS

Home | Current Version | Previous Version | Text Only | Print | Product List | Glossary On
Versions: 1 2 3 4 5 6 7 8 9 10 11 12 13 14 15 16 17 18 19 20 21 22 23 24 25 26 27 28 29 30 31 32 33 34 35 36 37 38 39 40 41 42 43 44 45 46 47 48 49 50
000
ASUS43 KLOT 181803
RWRIL

ILLINOIS REGIONAL WEATHER ROUNDUP
NATIONAL WEATHER SERVICE CHICAGO/ROMEOVILLE IL
1200 PM CST WED JAN 18 2017

NOTE: "FAIR" INDICATES FEW OR NO CLOUDS BELOW 12,000 FEET WITH NO
SIGNIFICANT WEATHER AND/OR OBSTRUCTIONS TO VISIBILITY.

* THESE STATIONS ARE NOT UNDER NWS QUALITY CONTROL. THEY ALSO MAY NOT
  REPORT WEATHER SUCH AS PRECIPITATION OR FOG.

ILZ001-002-007-009-015-016-024-181900-
NORTHWEST ILLINOIS

CITY           SKY/WX    TMP DP  RH WIND       PRES   REMARKS
MOLINE         CLOUDY    36  30  79 S13       30.11F WCI  27
6HR MIN TEMP:  33; 6HR MAX TEMP:  37;

STERLING*      CLOUDY    35  31  85 SW13G18   30.11F WCI  26
SAVANNA*       CLOUDY    33  30  88 SW9       30.10F WCI  26
$$

ILZ003-004-008-010-011-017-018-181900-
NORTH CENTRAL ILLINOIS

CITY           SKY/WX    TMP DP  RH WIND       PRES   REMARKS
ROCKFORD       CLOUDY    34  30  85 SW15      30.10F WCI  24
6HR MIN TEMP:  33; 6HR MAX TEMP:  35; 6HR PCP: TRACE;

ROCHELLE*      CLOUDY    33  32  95 SW17      30.10F WCI  22
DE KALB*       CLOUDY    34  33  97 SW21      30.09F FOG     WCI  22
$$

ILZ005-006-012>014-019>023-181900-
NORTHEAST ILLINOIS

CITY           SKY/WX    TMP DP  RH WIND       PRES   REMARKS
CHICAGO-OHARE  CLOUDY    34  33  96 SW9       30.08F FOG     WCI  27
6HR MIN TEMP:  33; 6HR MAX TEMP:  35; 6HR PCP: TRACE;

CHICAGO-MIDWAY CLOUDY    33  32  96 SW14      30.10F FOG     WCI  23
6HR MIN TEMP:  32; 6HR MAX TEMP:  33; 6HR PCP: TRACE;

AURORA         CLOUDY    36  33  89 SW14      30.11F FOG     WCI  27
6HR MIN TEMP:  33; 6HR MAX TEMP:  36;

LANSING*       CLOUDY    34  34 100 SW14      30.13F FOG     WCI  24
JOLIET*        CLOUDY    37  35  92 SW9       30.13F FOG     WCI  30
WAUKEGAN       CLOUDY    36  34  93 SW15G21   30.05F WCI  26
6HR MIN TEMP:  33; 6HR MAX TEMP:  35;

DUPAGE AIRPORT CLOUDY    34  32  92 SW14      30.09F FOG     WCI  25
6HR MIN TEMP:  33; 6HR MAX TEMP:  34;

WHEELING       CLOUDY    34  32  92 SW12      30.10F WCI  25
6HR MIN TEMP:  33; 6HR MAX TEMP:  35;

MORRIS*        CLOUDY    36  33  87 SW14      30.12F WCI  27
ROMEOVILLE*    CLOUDY    34  34 100 SW9       30.12F FOG     WCI  27
NORTHERLY ISL    N/A     34  32  92 S6          N/A  WCI  29
$$

LMZ740>746-181900-
SOUTHERN LAKE MICHIGAN

STATION/POSITION SKY/WX   TEMP    WIND        PRES    VSBY  WAVE
                          AIR SEA DIR/SP/G                  HT/PER
                          (F)     (DEG/KT/KT) (MB)    (MI)  (FT/S)
HARRISON CRIB              35     210/ 18/ 21   N/A
BURNHAM HARBOR             35     190/  9/ 13   N/A
CALUMET HARBOR             34     210/ 12/ 14 1019.3F
BURNS HARBOR               35     220/ 15/ 19 1020.3F
$$

ILZ025>027-034>036-040-047-049-050-058-095>099-181900-
WEST-CENTRAL ILLINOIS

CITY           SKY/WX    TMP DP  RH WIND       PRES   REMARKS
QUINCY         CLOUDY    39  35  86 S9        30.14F WCI  33
GALESBURG*     CLOUDY    35  33  92 S13       30.14F WCI  26
MACOMB*        CLOUDY    38  35  87 SW6       30.17F WCI  34
JACKSONVILLE*  PTSUNNY   39  33  80 SW8       30.16F WCI  33
PITTSFIELD*    PTSUNNY   39  34  81 S6        30.17F WCI  35
$$

ILZ028>032-037-038-041>044-048-051>054-059>061-181900-
CENTRAL ILLINOIS

CITY           SKY/WX    TMP DP  RH WIND       PRES   REMARKS
BLOOMINGTON    CLOUDY    36  32  85 SW13      30.16F WCI  27
DECATUR        PTSUNNY   39  33  79 SW8       30.18F WCI  33
PEORIA         CLOUDY    38  32  79 MISG      30.16F
6HR MIN TEMP:  34; 6HR MAX TEMP:  38;

LACON*         CLOUDY    35  31  85 SW12      30.14F WCI  27
LINCOLN*       CLOUDY    39  33  80 SW3       30.17F
SPRINGFIELD    CLOUDY    40  33  76 W7        30.18F
6HR MIN TEMP:  36; 6HR MAX TEMP:  40;

TAYLORVILLE    PTSUNNY   39  33  79 S6        30.18F WCI  35
6HR MIN TEMP:  35; 6HR MAX TEMP:  39;

$$

ILZ033-039-045-046-055>057-062-063-181900-
EAST-CENTRAL ILLINOIS

CITY           SKY/WX    TMP DP  RH WIND       PRES   REMARKS
CHAMPAIGN      CLOUDY    39  33  79 SW10      30.17F WCI  32
MATTOON        CLOUDY    38  33  82 S8        30.18F WCI  32
$$

ILZ079-100>102-181900-
SOUTHWEST ILLINOIS

CITY           SKY/WX    TMP DP  RH WIND       PRES   REMARKS
ALTON          MOSUNNY   41  34  75 CALM      30.18F
BELLEVILLE     SUNNY     46  35  66 VRB3      30.18F
CAHOKIA*       SUNNY     45  33  63 SW6       30.19F
SPARTA*        SUNNY     42  34  72 CALM      30.22F
$$

ILZ064>066-069>071-074>076-080>082-084>086-088>090-092>094-181900-
SOUTH-CENTRAL ILLINOIS

CITY           SKY/WX    TMP DP  RH WIND       PRES   REMARKS
CARBONDALE     CLOUDY    41  36  82 CALM      30.23F
6HR MIN TEMP:  39; 6HR MAX TEMP:  42;

CAIRO*         CLOUDY    42  38  85 NE3       30.23S
EFFINGHAM*     CLOUDY    39  36  87 S6        30.21F
MT. VERNON     SUNNY     44  35  70 S5        30.20F
CENTRALIA*     SUNNY     44  36  73 CALM      30.20F
SALEM*         MOSUNNY   43  34  71 CALM      30.20F
$$

ILZ067-068-072-073-078-083-087-091-181900-
SOUTHEAST ILLINOIS

CITY           SKY/WX    TMP DP  RH WIND       PRES   REMARKS
LAWRENCEVILLE  CLOUDY    40  35  83 SW6       30.22F
FLORA*         CLOUDY    41  35  80 CALM      30.22F
FAIRFIELD*     CLOUDY    40  35  81 CALM      30.21F
HARRISBURG*    CLOUDY    42  36  78 CALM      30.23F
ROBINSON*      CLOUDY    38  35  87 W3        30.23F
CARMI*         CLOUDY    41  35  79 CALM      30.22F
$$

ABBREVIATIONS USED IN REMARKS
   TC - TEMPERATURE IN CELSIUS
  WCI - WIND CHILL INDEX
   HX - HEAT INDEX
  VSB - VISIBILITY
$$





USA.gov is the U.S. government's official web portal to all federal, state and local government web resources and services.